Theta_e
319 325 326 325 326 327 327 328 328 326 325 324 321 320 320 318 318 317 316 318 320 320 320 321 320 319 319 318 319 322 324 325 326 326 326 326 326 326 327 327 327 327 325 326 325 325 325 324 324 323 321 316 314 316 315 317 319 319 325 327 324 328 328 329 325 318 321 322 318 317 318 318 317 317 317 319 320 321 320 322 327 327 325 324 326 323 323 332
317 322 326 325 326 328 328 328 328 326 325 324 320 321 321 319 317 316 316 317 319 320 320 321 321 320 319 318 320 324 325 326 326 326 326 326 326 326 326 326 327 327 326 326 325 325 323 322 322 319 318 317 314 315 316 318 319 320 325 324 329 335 325 321 320 316 318 319 317 317 317 317 317 317 317 320 321 321 326 329 329 328 326 326 327 323 325 332
315 317 324 326 325 327 328 328 328 326 325 324 321 320 321 319 318 317 316 317 318 319 320 320 322 321 319 319 321 324 325 326 326 327 327 326 326 325 325 325 326 327 326 326 326 324 320 318 319 316 316 316 314 314 316 318 319 319 319 323 336 333 319 315 316 316 318 318 317 316 317 318 317 317 316 319 319 320 327 330 329 328 327 326 325 324 327 331
314 314 321 326 325 327 328 328 328 327 325 324 321 320 320 319 318 318 317 317 317 318 319 320 321 322 320 319 320 322 323 326 326 326 327 326 326 326 325 325 325 326 326 326 326 323 317 315 315 314 315 315 314 314 315 317 318 318 318 326 331 320 315 317 315 317 318 317 318 317 317 317 316 317 316 317 319 318 320 322 323 324 325 325 325 326 327 331
314 314 319 325 326 326 327 327 328 326 325 324 322 320 320 319 318 318 318 317 317 318 320 321 322 323 322 321 320 320 322 326 327 326 326 326 326 326 325 325 325 326 325 326 326 320 315 314 313 313 314 313 314 314 314 316 317 318 318 321 321 315 316 318 315 317 317 317 318 315 317 318 316 316 316 317 319 318 317 317 317 317 319 321 323 326 327 330
313 312 315 320 324 326 327 328 328 326 325 324 322 320 319 318 317 318 318 318 319 319 320 322 322 324 324 324 323 322 324 326 325 325 327 326 326 325 325 326 325 325 325 325 325 320 313 313 313 313 312 313 313 312 314 315 316 319 319 317 316 315 317 316 316 317 317 317 316 315 317 317 316 316 316 317 318 317 316 316 316 315 316 317 320 324 326 328
312 312 312 314 319 325 327 327 328 326 325 325 323 321 319 318 317 317 318 319 320 320 321 322 323 324 325 325 326 325 325 324 319 323 327 325 326 326 325 325 325 325 325 325 325 321 315 313 313 311 313 317 315 311 313 314 314 318 319 317 316 315 316 316 316 316 317 317 316 317 317 316 316 317 315 315 316 316 316 316 315 316 318 319 321 322 322 324
311 311 313 312 316 322 326 328 327 326 325 325 324 322 320 317 316 317 318 319 321 321 322 323 323 324 324 325 326 325 325 323 317 320 326 326 326 325 325 325 325 325 325 324 325 323 318 314 312 312 315 317 314 311 312 313 314 317 319 317 316 315 316 316 315 316 316 316 317 317 316 316 316 315 315 315 316 316 316 316 315 317 318 320 320 319 320 322
311 310 312 313 315 319 325 327 327 326 325 325 324 323 321 318 317 317 318 319 320 321 322 323 323 324 324 325 326 325 325 324 318 318 322 325 326 325 325 325 324 324 324 324 324 324 320 314 312 313 314 313 312 311 311 312 315 316 317 317 316 315 315 315 315 315 316 316 316 316 314 315 315 315 315 315 316 316 316 317 316 317 318 319 318 317 318 319
313 310 311 313 314 317 323 327 327 326 325 325 324 324 322 320 318 318 319 319 320 322 323 323 324 324 325 325 325 325 325 324 320 318 319 323 325 325 325 324 324 324 324 324 324 324 320 315 314 312 312 312 311 311 311 312 314 314 315 316 315 315 314 314 314 314 315 315 315 316 315 314 314 315 316 315 315 315 316 317 316 316 317 317 318 317 316 316
315 312 311 312 313 315 319 324 327 326 326 325 325 324 323 321 319 318 319 319 320 322 323 324 324 324 325 325 325 325 325 324 323 321 318 319 323 324 324 324 324 324 324 323 323 324 321 317 314 314 314 313 312 312 311 311 312 312 313 315 314 314 314 313 314 314 315 315 315 315 314 313 314 315 317 316 315 315 316 316 317 316 317 317 317 317 316 316
316 315 313 311 312 314 316 322 327 326 325 325 325 325 324 323 321 319 319 319 320 321 322 324 324 324 325 325 325 324 324 324 325 323 319 319 321 323 323 324 324 324 324 323 323 324 322 317 314 316 317 313 312 312 312 312 311 311 313 316 314 313 315 314 313 314 315 314 315 315 315 315 316 316 316 315 315 316 316 316 317 317 317 317 318 318 317 316
315 317 316 313 312 313 315 321 326 326 325 325 325 325 324 324 323 321 320 320 321 322 322 323 323 324 325 324 324 324 324 323 324 324 320 318 320 323 323 323 323 323 323 323 323 322 320 316 315 317 315 312 312 312 312 312 311 312 313 315 316 314 316 316 313 314 314 314 315 314 317 319 318 315 315 315 315 316 317 317 318 318 318 318 318 318 317 316
313 316 318 316 314 315 316 318 324 326 324 325 325 324 325 325 324 323 321 321 321 322 323 323 324 324 324 323 324 324 323 322 323 324 322 318 319 322 322 321 321 320 321 321 320 320 318 314 314 316 315 313 313 312 312 311 312 314 313 315 318 317 321 318 312 314 314 314 314 313 318 323 319 315 315 314 315 316 318 318 318 318 318 318 319 318 318 316
312 315 317 317 316 317 317 315 320 324 323 323 323 324 325 325 325 324 322 322 322 323 323 323 323 323 323 322 322 324 323 322 323 323 323 321 318 320 321 319 318 318 319 318 317 316 315 314 314 315 314 313 313 311 311 312 316 316 314 318 317 316 324 320 311 313 315 314 313 313 318 323 319 314 314 314 315 316 316 317 318 318 318 318 318 318 317 316
311 312 316 318 318 318 316 313 316 321 322 322 323 324 325 325 325 324 322 322 323 323 323 323 323 323 322 321 321 322 323 322 323 322 323 322 318 317 319 317 317 316 316 316 315 315 314 313 313 313 313 313 312 312 311 312 318 321 319 322 319 315 319 318 313 313 313 314 313 313 317 321 317 313 313 314 314 315 315 316 317 317 318 317 317 317 316 315
310 311 315 317 319 320 316 312 314 320 322 323 323 324 324 324 324 323 322 322 324 323 323 323 322 322 321 320 319 320 322 323 323 322 321 320 317 317 318 316 315 314 314 314 314 314 313 312 312 314 313 312 312 311 312 311 315 321 319 319 321 318 316 317 317 313 312 313 314 313 315 319 316 311 312 314 314 314 313 314 316 316 316 316 316 316 316 316
310 310 313 316 319 321 316 311 314 320 323 323 323 324 324 323 322 322 322 322 322 321 322 321 321 323 322 318 317 319 321 323 323 321 320 319 316 317 317 315 314 313 313 313 313 313 312 311 312 315 314 313 312 310 312 313 315 319 318 317 318 316 315 317 318 314 313 314 314 314 314 317 317 312 311 312 312 313 313 314 315 315 314 315 315 315 316 316
308 309 311 315 318 321 317 312 313 319 323 324 323 324 324 322 321 321 322 322 319 318 319 318 319 323 322 319 318 319 320 322 323 319 318 319 316 316 316 315 314 313 313 313 313 312 312 312 312 315 315 314 313 310 311 315 317 319 320 320 320 318 316 318 318 314 313 314 314 315 315 315 316 315 312 312 312 312 313 313 313 314 314 314 315 315 315 315
307 308 310 314 318 320 318 313 312 315 320 325 324 323 322 319 318 317 318 321 319 317 317 317 319 319 318 319 319 319 319 321 321 317 316 319 316 316 317 316 315 313 313 312 313 312 312 313 313 314 314 313 312 311 310 313 315 315 315 318 320 319 316 317 318 313 310 314 315 314 315 314 315 316 312 310 312 311 311 312 312 313 314 314 315 314 314 315
307 308 309 313 318 321 319 315 312 312 318 324 323 322 320 318 318 316 316 319 318 317 317 318 320 316 315 319 319 319 319 318 318 315 315 317 316 315 315 315 314 313 312 311 312 312 312 313 313 312 312 311 311 311 310 311 312 312 313 315 316 318 319 316 315 314 311 313 316 315 315 314 314 316 311 309 310 311 311 311 312 313 314 314 315 314 315 315
307 308 309 312 317 320 321 319 314 312 319 324 322 321 321 319 319 319 318 316 314 314 316 318 318 314 314 317 318 320 319 315 314 314 314 315 314 313 314 313 313 312 311 310 311 311 311 313 312 311 311 310 311 311 310 310 311 312 312 313 315 318 319 315 313 315 313 313 317 316 315 315 315 315 311 308 309 311 313 313 313 314 314 314 314 314 315 315
307 308 309 312 317 320 322 321 314 313 320 323 321 321 320 319 319 319 318 314 312 312 314 318 317 313 313 315 316 319 319 316 314 313 313 313 313 313 312 312 312 312 310 310 311 311 311 311 311 311 311 310 311 310 310 310 310 313 314 314 317 316 317 316 313 314 313 313 315 316 315 316 314 314 313 311 311 311 312 314 314 314 314 314 314 314 314 314
307 308 308 311 317 319 321 321 315 315 321 322 321 320 319 318 318 319 317 313 312 311 313 318 317 314 313 314 316 318 319 319 315 313 313 312 312 311 311 312 311 311 310 310 310 311 312 311 310 311 311 310 311 311 311 311 310 313 317 318 318 318 317 317 315 315 313 313 314 314 316 319 319 316 314 312 312 311 311 313 313 314 314 314 314 314 314 315
307 308 309 312 317 319 320 321 317 317 321 321 320 319 318 318 318 319 316 314 314 310 312 317 316 315 314 314 315 316 317 318 315 313 313 312 312 311 310 311 311 310 310 310 310 311 312 311 311 311 311 312 312 311 312 313 311 313 317 319 319 319 318 317 317 317 314 314 316 312 315 326 329 321 316 313 311 310 311 310 311 314 314 313 314 314 314 314
307 308 309 313 319 321 321 321 318 319 320 320 320 319 318 318 318 318 315 316 316 311 311 315 315 315 314 313 312 313 316 316 314 313 313 312 312 311 310 310 310 310 310 310 310 312 312 310 311 312 312 314 314 312 313 313 311 312 316 321 321 318 319 320 318 318 318 316 315 313 315 323 325 320 320 317 313 312 311 309 309 312 314 313 314 315 314 314
306 307 309 314 320 322 322 320 319 319 319 319 320 318 318 317 318 318 315 318 318 312 310 313 314 314 314 312 311 312 316 315 313 313 313 313 312 311 310 310 309 309 309 310 311 312 312 311 312 313 313 315 314 312 314 314 312 315 318 321 322 318 321 323 317 320 323 316 316 320 317 315 316 317 320 317 315 317 314 311 309 309 312 314 314 315 315 315
306 307 310 316 320 321 321 320 319 319 318 318 318 317 317 317 318 316 316 319 318 311 310 311 311 312 313 312 311 311 313 314 313 314 312 313 312 311 311 310 309 310 309 310 312 311 312 313 313 313 313 314 313 313 317 314 312 320 321 319 321 319 321 322 318 321 320 314 319 323 315 313 320 324 322 316 315 318 319 318 313 308 310 313 313 315 315 315
306 307 312 317 319 320 320 319 319 319 319 319 318 317 317 316 316 315 316 318 313 310 311 311 311 312 312 312 311 311 311 312 313 313 312 313 312 311 311 310 309 311 310 310 314 313 311 312 312 313 313 314 316 318 320 316 313 318 318 317 320 320 320 321 323 324 317 313 321 323 315 313 321 328 325 316 314 319 321 321 315 309 311 313 313 314 315 315
306 308 315 318 319 319 319 319 319 319 319 318 317 317 315 315 314 315 317 316 312 311 310 310 312 312 312 312 312 312 311 311 312 313 312 313 312 310 311 311 309 313 317 315 318 317 311 309 311 313 312 312 316 317 315 317 314 314 318 319 319 321 324 327 330 326 315 316 326 325 318 313 315 324 324 316 316 320 319 319 315 309 311 313 313 313 313 314
307 311 316 319 319 319 319 318 318 319 318 316 316 315 314 315 315 315 316 314 312 311 309 310 312 312 312 312 313 313 311 310 311 312 312 312 312 310 310 312 311 315 320 316 316 317 312 311 311 311 310 311 317 316 313 314 313 315 324 322 317 322 325 328 329 322 316 321 325 321 316 312 314 322 323 317 317 317 314 317 318 312 311 313 313 314 314 314
308 313 317 319 319 319 319 318 318 319 317 316 315 314 315 316 317 316 315 313 313 311 310 311 313 312 311 312 313 313 313 312 310 311 312 311 312 310 310 313 312 314 314 313 314 314 314 315 313 310 310 312 318 318 314 315 314 317 322 319 318 322 320 320 323 320 320 321 317 313 314 314 316 318 318 316 316 315 309 310 314 312 312 314 313 313 314 314
309 314 318 319 319 318 319 318 318 318 317 316 314 314 316 317 317 316 313 312 313 311 310 312 312 312 311 312 313 312 313 314 311 311 312 312 313 311 311 314 314 315 315 315 315 313 316 319 314 313 312 311 315 316 316 318 316 314 317 317 320 321 314 314 318 317 317 318 313 311 313 316 317 317 317 317 313 312 309 308 312 312 312 314 313 313 314 314
311 316 319 319 319 318 318 318 318 317 316 316 314 314 317 317 317 315 312 312 312 311 310 312 312 312 311 312 312 311 313 313 311 312 312 312 313 312 312 314 314 317 318 316 315 313 316 318 314 315 314 311 314 315 317 321 317 315 317 317 321 323 319 317 319 319 317 316 313 310 313 319 319 316 315 312 308 309 310 310 311 311 312 314 313 314 314 314
314 318 319 318 318 318 318 318 317 317 316 315 313 314 317 317 316 314 312 311 311 310 311 311 311 312 312 312 312 311 313 314 311 311 312 312 313 312 312 311 312 316 317 314 314 314 314 315 315 314 310 311 314 314 315 318 317 316 316 316 317 321 324 319 317 322 321 318 315 311 315 323 319 313 312 309 307 308 309 310 311 311 312 313 314 315 314 314
318 319 319 317 316 317 317 317 317 317 316 314 314 315 316 317 315 314 312 310 310 311 311 311 311 312 311 311 312 311 312 313 311 311 312 312 312 312 312 311 311 314 314 313 315 316 314 314 314 313 310 310 312 312 313 314 315 315 313 316 317 316 322 320 312 315 317 315 317 313 315 322 317 313 317 316 313 312 310 310 310 311 313 313 314 314 314 315
319 317 316 316 316 316 317 317 316 316 314 313 314 316 315 315 314 313 311 310 310 311 311 312 312 311 311 311 312 312 312 313 312 311 312 312 312 312 312 312 311 311 312 313 314 316 316 315 313 314 314 310 308 309 310 309 313 317 314 316 316 312 319 321 314 315 315 314 320 315 313 320 317 316 324 320 314 316 315 312 309 310 312 313 314 314 314 314
316 314 315 315 316 317 317 316 316 315 313 312 314 315 314 314 312 311 310 310 310 312 312 313 312 311 311 311 312 312 312 313 311 311 312 312 313 313 311 311 311 310 311 311 313 315 317 317 313 312 314 313 310 312 313 309 310 315 315 314 316 316 318 318 315 317 314 312 321 318 312 316 317 319 325 318 315 320 317 313 311 310 311 312 314 314 313 313
314 313 313 314 316 316 316 315 315 313 312 313 314 314 314 315 312 309 310 310 311 312 313 313 312 311 311 311 312 312 312 312 311 311 312 311 313 313 310 311 312 310 309 310 315 315 316 318 315 311 312 313 313 314 315 314 310 311 313 311 315 319 320 319 316 317 316 314 321 319 313 318 320 320 323 318 318 322 317 317 316 309 308 312 313 313 312 312
313 313 312 313 315 315 315 314 313 313 313 314 314 314 314 315 312 308 309 312 311 312 313 313 312 311 311 311 312 312 312 313 311 310 312 312 311 311 310 311 312 311 308 310 316 315 313 317 318 313 311 312 315 315 316 316 312 312 314 313 313 314 315 318 316 318 322 320 322 318 316 327 327 318 317 316 316 318 315 318 316 307 307 311 312 312 312 312
313 313 312 313 314 314 314 313 312 312 313 313 312 313 313 312 310 308 310 311 311 312 312 312 312 312 311 312 312 311 313 313 311 310 313 312 310 312 311 310 310 311 310 312 316 316 314 316 318 315 313 314 317 317 315 315 315 314 314 314 314 314 316 317 314 317 319 317 321 318 317 328 328 316 315 316 314 312 308 309 310 308 309 311 311 312 311 311
312 312 312 312 313 313 313 312 312 312 313 312 311 311 312 311 310 309 310 311 312 313 312 312 312 312 311 311 311 312 312 312 311 311 314 313 311 313 312 309 309 310 311 314 316 316 316 318 320 318 315 316 318 314 309 311 315 315 313 313 314 314 317 316 315 318 317 313 317 317 314 323 328 319 316 314 309 307 305 305 307 309 311 312 311 311 311 311
311 312 312 312 312 312 312 312 312 312 312 311 310 311 312 310 309 310 310 310 312 313 311 311 311 311 312 311 311 312 311 311 311 311 313 313 311 312 311 309 310 310 311 315 316 314 315 319 320 317 315 317 320 317 310 309 313 314 314 315 314 314 317 320 321 321 318 315 315 314 312 322 331 318 307 305 305 306 307 308 308 310 312 312 311 311 310 311
311 312 311 312 312 311 312 312 313 312 311 310 310 312 313 311 310 310 310 311 313 313 311 311 311 311 312 312 311 312 311 312 312 311 313 314 311 310 309 309 311 311 311 314 314 312 314 317 318 317 316 316 319 318 313 311 312 314 317 316 314 315 316 317 318 315 315 320 319 315 315 321 328 319 307 307 309 307 307 309 310 312 312 311 312 311 310 311
312 312 311 311 311 312 312 312 313 312 311 310 311 313 314 312 310 309 310 312 313 312 311 311 311 311 312 312 312 312 312 313 314 312 314 315 311 309 309 309 311 311 311 312 311 312 318 319 316 316 317 315 315 315 314 315 314 315 318 316 314 315 314 315 317 313 315 320 317 315 317 318 319 318 312 314 316 312 309 309 310 312 312 312 312 311 310 311
312 311 311 310 310 311 311 311 311 311 311 310 311 313 314 314 312 310 310 312 313 313 313 312 312 312 312 312 312 312 311 313 315 313 313 314 315 312 308 308 310 309 310 312 310 314 322 319 314 315 314 312 315 317 317 318 315 314 317 317 316 316 315 318 321 317 317 320 317 316 317 314 315 315 314 316 319 318 313 309 308 311 311 312 312 311 311 312
311 311 310 310 311 311 311 311 311 310 310 310 311 313 313 314 314 311 311 313 313 312 313 313 312 313 312 312 312 312 311 313 315 313 313 315 316 312 308 308 309 309 311 311 310 316 323 317 314 316 314 314 321 322 317 315 315 313 315 316 316 316 316 317 317 316 317 317 315 316 316 313 313 314 315 318 321 320 313 308 310 311 310 312 313 312 313 312
310 310 310 310 312 312 312 312 310 309 310 310 311 313 314 314 314 312 313 314 313 312 313 313 313 313 312 312 313 312 312 313 314 313 314 316 314 311 310 309 308 309 311 311 310 315 319 316 315 315 313 316 321 320 316 315 314 314 314 315 316 316 316 316 314 315 317 315 312 313 315 314 312 312 315 316 315 314 311 309 311 311 309 311 312 312 313 313
309 310 309 309 311 312 312 311 310 310 310 310 312 314 314 314 314 314 317 316 314 314 314 313 313 313 313 313 312 312 312 313 313 312 313 314 313 313 313 311 309 308 309 312 311 311 314 317 316 314 313 315 316 316 316 315 314 314 314 315 315 316 316 315 314 313 314 314 313 313 315 314 311 312 314 312 309 309 309 308 310 311 310 311 311 312 314 314
308 310 309 309 310 311 311 311 310 309 309 310 313 314 313 314 314 316 317 315 314 315 314 313 313 313 313 313 312 312 312 313 314 313 312 312 312 313 313 313 312 310 309 311 311 309 312 316 315 313 313 314 314 314 314 314 314 315 315 314 314 315 315 313 313 313 312 313 313 313 315 314 311 310 311 310 309 309 308 308 310 311 312 311 310 311 313 313
307 308 309 309 310 311 311 310 310 309 309 310 313 313 312 313 314 315 316 314 314 316 315 314 314 313 312 313 313 313 312 312 313 312 311 312 312 312 313 312 311 312 312 312 313 312 312 314 313 313 315 314 314 314 314 314 314 314 315 315 314 314 314 313 313 314 313 313 313 314 313 312 311 311 310 309 309 307 308 310 312 312 312 311 310 311 312 312
306 308 309 309 309 310 310 310 310 309 309 310 311 312 313 313 314 316 315 312 312 313 313 313 313 313 312 313 313 312 311 311 312 310 310 311 311 310 311 310 309 312 313 313 315 315 315 315 314 314 316 314 313 314 315 315 314 313 314 314 312 313 313 312 313 314 313 313 314 313 312 312 314 313 311 312 310 308 309 311 312 312 312 311 310 310 311 311
Wind_Speed
33 38 44 45 46 46 47 46 43 41 39 38 40 41 42 43 42 41 39 35 32 30 30 29 29 30 30 32 31 27 25 25 25 25 26 27 25 24 25 21 18 16 14 18 13 12 14 13 14 12 13 6 6 8 6 5 3 0 2 2 2 2 4 5 7 7 5 6 9 13 13 13 9 10 14 12 14 16 12 9 10 10 7 10 9 10 26 33
34 35 42 45 46 48 49 48 44 42 41 40 41 41 42 44 43 41 40 37 34 31 29 28 28 28 29 31 31 27 24 23 21 21 23 25 25 24 25 23 19 16 17 19 9 10 14 12 13 7 8 5 6 8 6 4 3 3 2 2 4 4 5 4 7 10 8 10 13 14 15 16 13 15 18 10 9 15 11 7 8 10 11 12 12 17 28 34
35 33 36 42 44 46 50 51 47 43 42 41 42 42 42 44 44 42 41 39 36 32 30 28 27 27 28 31 33 28 23 19 19 21 22 23 24 24 25 25 23 17 19 20 10 10 13 11 10 5 3 2 5 9 7 4 3 4 2 1 5 5 4 6 8 15 14 19 18 14 15 15 16 18 16 11 10 10 9 9 9 12 15 16 18 24 29 34
34 33 31 38 42 42 47 51 48 45 43 42 43 43 43 45 44 43 41 39 37 33 30 29 27 27 28 30 33 31 23 14 18 24 23 23 24 25 26 25 25 20 18 20 12 9 13 11 7 4 3 1 9 12 8 7 4 3 4 4 6 2 3 7 7 12 14 24 25 17 13 12 16 16 15 18 11 3 11 17 14 14 20 21 23 26 28 33
33 35 31 31 39 43 47 50 48 46 44 43 44 44 44 46 45 43 41 39 37 34 31 30 28 27 27 28 30 31 23 7 12 26 25 24 25 25 26 25 25 24 19 18 14 10 12 8 5 5 6 5 10 9 7 9 6 3 4 8 8 2 2 7 6 9 14 23 22 17 12 12 16 13 16 21 10 7 16 19 15 15 19 21 23 25 28 33
32 37 36 30 32 41 46 50 48 46 45 44 44 45 44 46 46 43 42 39 37 35 32 31 29 28 27 27 27 28 24 6 3 19 25 24 26 25 26 26 25 25 22 18 15 13 12 6 6 4 6 5 7 7 10 11 7 4 5 7 7 5 5 5 5 11 19 21 20 17 13 15 15 9 16 22 13 11 14 15 15 14 15 19 21 24 27 31
31 36 41 36 31 38 44 49 50 46 46 45 44 46 45 46 46 43 42 39 37 36 33 32 30 30 28 27 26 25 27 12 2 12 24 23 26 26 25 27 26 25 24 21 19 16 14 6 8 5 5 2 6 8 14 15 9 7 4 6 5 6 9 8 6 12 20 21 21 20 16 17 14 8 13 19 15 10 10 12 15 15 16 20 21 23 24 27
32 34 42 41 32 35 42 49 54 49 47 46 45 47 46 46 46 44 43 40 38 36 34 32 30 31 29 27 25 20 24 19 2 7 21 23 23 25 25 27 26 25 24 24 23 20 18 10 4 4 4 2 6 10 16 15 7 7 5 7 4 5 9 10 8 12 18 17 19 19 16 17 14 9 12 16 13 9 9 12 17 19 20 22 22 21 22 24
33 32 39 43 35 32 38 47 54 50 47 47 46 47 47 47 46 44 43 40 39 37 34 33 30 31 28 28 25 16 20 23 9 4 16 24 24 23 25 26 27 27 25 24 23 21 21 18 6 5 4 4 7 11 14 9 3 6 10 11 5 4 6 7 7 11 15 13 18 15 8 12 11 7 9 14 13 11 11 11 18 23 23 24 23 21 21 22
35 32 35 44 40 33 34 42 51 51 49 47 46 46 47 47 47 45 43 41 40 37 34 33 30 30 28 28 24 11 19 27 16 5 8 21 27 25 25 24 25 27 27 24 23 21 23 24 15 6 1 6 5 10 14 5 4 11 12 13 7 5 4 5 5 9 11 11 18 13 4 7 9 5 6 13 16 14 13 12 18 24 24 25 24 23 22 20
35 34 34 41 45 40 33 34 45 50 48 47 46 47 46 47 47 46 44 42 40 37 34 32 30 30 29 29 23 12 19 28 25 13 4 13 24 27 26 24 22 25 27 26 24 22 23 27 24 12 1 5 5 14 16 8 11 19 10 8 4 4 3 5 6 8 8 6 14 12 6 2 4 3 7 16 20 17 16 17 21 25 24 25 25 24 23 21
34 38 37 40 46 46 37 34 45 49 47 47 45 46 46 45 47 46 45 42 40 37 34 32 30 30 29 27 25 20 20 25 28 21 6 9 18 21 24 23 20 22 24 26 25 23 25 28 27 21 6 6 6 9 12 14 19 18 8 6 1 1 1 6 7 8 6 4 11 12 5 2 2 8 10 16 23 19 18 19 22 26 25 25 25 25 25 22
33 38 40 41 45 48 38 36 48 51 47 47 45 46 46 44 46 46 45 42 40 37 34 33 30 30 27 22 22 23 19 19 25 23 11 9 16 17 19 20 20 19 18 22 25 25 28 26 24 28 15 6 7 7 14 21 20 12 6 4 1 2 3 7 7 7 5 4 12 10 2 5 7 15 11 13 23 22 20 22 23 26 26 26 26 26 26 24
33 38 41 42 44 45 38 35 45 50 48 46 45 45 44 43 44 45 46 43 40 36 34 33 29 28 25 18 20 25 20 15 21 24 17 13 17 19 18 19 20 19 17 18 23 29 31 24 22 27 19 8 11 13 15 16 11 4 2 2 3 3 4 6 6 7 4 6 10 6 3 5 8 17 14 13 24 25 24 25 25 26 26 27 27 27 26 25
34 37 41 43 43 41 40 40 41 44 46 45 45 44 43 43 41 44 45 42 39 35 34 32 29 27 21 15 19 25 23 18 19 22 21 17 17 21 22 22 20 18 20 21 25 30 28 23 22 19 14 11 11 11 7 6 4 0 2 3 0 4 5 6 5 10 6 5 7 5 2 5 7 13 14 16 25 27 27 27 26 27 26 27 27 27 27 25
35 37 40 43 44 40 44 46 40 41 46 45 45 44 43 42 40 42 42 40 37 34 34 31 30 27 16 10 15 23 26 23 20 18 20 20 16 20 25 23 19 18 20 22 25 27 23 19 17 11 9 8 7 5 4 5 5 3 2 3 2 4 3 4 4 9 7 3 4 4 2 4 6 7 10 19 27 28 26 27 28 28 27 27 27 27 27 26
38 37 40 43 44 40 45 48 42 44 48 46 46 45 44 43 40 39 39 40 35 34 35 32 32 26 10 8 14 23 31 29 24 18 19 19 14 20 28 25 22 21 21 22 22 22 20 15 11 7 6 4 4 3 3 4 4 4 1 2 3 3 3 2 3 7 7 3 4 5 2 5 6 5 6 19 27 27 25 26 29 29 28 28 28 28 28 27
41 39 39 43 44 41 45 49 45 44 48 48 45 46 45 42 40 38 37 38 35 33 31 28 30 19 9 17 20 23 33 33 27 20 19 20 15 22 30 26 26 26 22 20 17 18 17 12 7 3 3 4 6 5 4 5 4 3 2 2 2 2 2 4 3 4 7 3 5 6 3 9 9 6 5 15 22 24 25 26 27 29 29 28 28 29 28 29
44 41 40 43 43 44 47 50 46 41 45 49 47 49 47 43 40 38 39 38 34 24 14 25 33 11 3 21 26 21 28 33 29 21 21 23 21 27 29 26 29 28 20 14 12 18 17 9 6 4 6 9 9 7 7 7 6 6 5 4 4 4 4 4 4 4 5 5 5 7 7 11 10 7 7 12 16 19 23 22 23 26 28 27 28 29 29 30
46 44 42 43 44 45 48 50 48 42 42 49 55 54 45 38 26 22 35 39 36 23 9 31 41 8 6 20 29 23 23 28 28 22 24 27 27 30 28 25 26 20 13 9 8 16 17 8 7 9 10 10 8 6 9 9 7 5 2 2 4 5 5 4 3 5 1 5 6 7 8 9 7 8 9 11 11 14 19 19 20 24 27 28 28 29 29 29
48 47 44 45 46 48 49 50 48 44 42 50 62 55 45 42 20 22 42 33 32 26 12 31 39 8 6 22 31 29 26 24 24 23 24 29 30 26 23 23 17 9 8 13 11 13 14 9 9 10 9 8 6 6 8 9 7 4 2 2 4 4 5 4 3 5 2 4 4 3 6 9 8 9 9 7 7 14 21 21 22 26 28 29 30 30 30 29
50 49 47 47 50 51 54 54 49 47 49 58 61 47 48 48 30 42 49 20 15 17 10 32 34 8 9 22 29 33 30 21 19 25 26 31 31 22 19 17 11 7 8 13 11 8 9 9 9 10 8 7 6 5 7 8 7 6 3 2 3 4 3 4 3 4 3 2 4 1 4 9 9 8 9 9 11 17 24 25 26 28 28 31 32 31 31 30
52 53 49 49 52 53 57 57 52 49 55 65 57 39 42 38 28 47 43 17 10 9 12 35 26 9 15 21 25 31 30 21 17 25 30 31 31 25 21 15 9 9 9 9 11 9 7 7 10 13 10 8 7 6 6 6 6 5 3 4 3 3 2 3 3 2 2 1 1 2 3 7 7 5 7 15 21 20 22 25 27 28 29 31 31 30 31 31
56 56 52 52 53 53 58 59 54 53 58 65 52 36 37 28 28 49 36 15 6 5 12 34 25 14 18 19 23 27 26 24 21 24 32 32 29 24 21 18 12 9 10 11 12 10 4 7 16 15 11 9 8 8 7 5 5 4 5 5 3 4 5 4 3 1 2 2 1 3 2 5 6 5 6 13 16 17 19 22 25 30 33 32 30 31 32 31
61 59 55 55 54 53 59 60 58 59 60 60 49 37 33 25 31 49 30 10 3 4 7 25 23 17 19 20 25 22 15 21 21 22 33 35 30 22 16 20 16 8 13 14 11 8 5 12 22 14 8 10 9 8 8 6 5 5 5 7 8 9 7 4 5 5 3 3 2 0 1 5 5 5 8 7 5 9 15 17 23 31 34 33 33 34 34 32
65 62 57 58 57 58 61 59 63 64 56 54 50 40 32 28 36 43 23 7 1 3 5 17 16 14 19 19 24 19 7 10 16 19 32 35 30 23 13 14 11 8 14 11 5 4 4 11 18 13 10 10 8 8 8 8 5 5 5 7 7 7 7 7 7 5 2 3 3 1 4 5 5 4 8 5 4 8 10 11 20 29 31 33 37 37 35 33
69 65 61 60 61 67 66 58 62 63 53 51 50 42 33 31 37 35 15 4 3 6 6 11 11 13 17 18 27 20 3 11 15 16 32 34 26 21 12 8 7 8 12 8 4 3 5 9 11 12 12 9 7 7 7 8 7 5 5 7 8 8 8 9 9 5 3 3 3 4 3 3 4 5 6 3 3 8 8 9 17 27 31 33 36 37 36 35
72 67 64 63 65 72 70 62 65 65 59 58 52 43 36 35 36 26 9 1 6 8 7 8 10 16 18 21 30 14 4 20 15 15 33 33 23 16 9 9 8 9 10 9 7 3 4 10 10 12 11 6 7 6 7 10 6 6 5 6 7 7 7 7 7 4 1 2 2 4 2 2 5 6 6 2 2 7 9 9 13 22 31 33 35 37 36 35
74 69 66 67 68 69 65 66 71 65 60 61 54 44 42 42 33 15 3 4 6 6 8 12 12 17 22 24 24 9 7 18 11 15 31 28 20 10 4 10 9 9 6 5 7 3 2 9 11 12 9 6 7 6 7 10 5 4 7 6 5 5 5 4 5 4 3 1 5 6 2 2 5 6 4 2 2 6 8 8 10 18 26 30 34 36 35 34
75 72 69 70 69 63 57 58 61 57 55 57 51 47 47 38 21 8 5 6 4 4 10 14 12 17 22 19 13 7 7 9 10 21 25 21 20 11 5 12 10 8 2 3 4 3 2 3 6 6 5 7 8 4 4 6 6 9 8 6 6 5 4 3 3 4 3 2 6 7 3 2 3 5 4 4 4 6 6 6 8 12 17 22 28 31 31 31
77 75 72 74 72 64 55 49 48 52 56 54 51 51 41 19 5 5 8 7 6 5 9 11 9 13 19 14 9 8 6 4 13 23 17 12 14 9 7 10 7 6 3 2 2 3 4 3 2 1 2 5 7 4 2 2 6 8 5 4 5 3 4 4 4 3 2 5 6 5 2 3 4 5 5 6 6 6 6 7 8 10 13 16 20 23 25 25
79 77 75 77 73 65 61 56 54 58 59 55 55 49 26 6 2 5 6 8 7 6 8 12 12 13 17 15 10 8 4 3 11 17 13 9 8 8 8 7 6 6 6 7 4 2 2 1 2 1 1 3 6 4 3 2 2 4 4 6 5 1 2 0 3 1 3 5 4 2 1 2 5 7 8 9 11 9 9 11 11 12 14 14 15 19 21 23
81 77 76 76 68 61 62 61 61 63 61 59 54 34 11 5 7 6 6 6 8 10 11 14 16 16 17 13 8 6 5 3 9 12 11 9 7 7 6 5 7 7 5 6 5 3 1 4 3 1 1 3 5 5 4 1 1 4 6 6 4 3 3 3 3 2 3 4 3 2 2 2 3 6 10 13 15 11 9 14 16 15 14 12 11 14 17 21
80 77 77 73 64 60 60 60 62 64 64 60 42 17 7 8 7 7 9 6 7 12 12 13 16 15 13 10 8 7 4 2 7 9 7 8 7 7 7 7 8 5 5 5 5 6 7 3 3 3 1 2 3 3 5 6 4 3 4 6 5 5 4 4 3 3 4 2 2 2 1 3 3 4 7 11 15 13 11 15 19 18 16 11 10 13 15 18
78 77 75 66 57 58 61 62 64 65 63 50 24 7 9 10 6 8 9 6 7 11 12 15 17 15 10 7 7 8 4 3 7 6 6 8 9 10 9 9 9 5 7 7 4 5 8 4 3 1 1 4 3 2 2 8 6 3 2 5 4 5 5 3 3 5 4 1 1 2 3 4 4 6 8 8 11 12 9 10 13 16 17 13 14 16 17 18
77 76 69 56 51 57 63 64 64 66 63 38 12 7 9 7 8 10 9 11 14 15 17 16 14 13 9 4 6 9 4 4 6 4 5 6 6 9 9 7 7 7 8 9 3 3 7 2 4 2 1 2 3 1 1 3 5 2 3 4 4 3 6 4 2 0 3 1 2 1 3 4 3 6 8 5 6 9 7 6 8 11 12 15 18 19 18 18
73 66 58 50 53 61 66 67 65 67 58 28 8 11 9 6 8 9 9 15 20 22 21 14 10 12 12 7 9 14 8 6 7 5 6 6 5 9 9 6 8 10 9 8 3 2 5 1 4 1 2 1 2 1 2 1 4 4 4 6 3 2 4 4 2 2 3 2 4 0 3 4 1 3 6 7 6 9 7 6 7 8 11 15 19 19 18 18
63 53 47 50 60 65 68 69 67 63 43 16 9 11 7 5 4 5 11 16 20 21 16 11 9 9 13 12 11 16 14 10 10 8 7 7 5 10 14 9 8 11 11 9 5 2 4 3 3 2 2 2 4 3 1 1 2 3 4 5 4 2 2 1 3 1 1 3 4 3 3 3 3 4 4 5 7 9 8 6 6 9 14 18 20 20 19 18
55 42 32 48 66 68 70 70 66 52 26 9 11 8 5 4 3 11 22 22 19 18 13 11 11 8 11 14 12 15 14 12 13 9 7 7 6 8 16 11 6 11 14 11 6 3 4 4 2 2 1 1 3 1 5 2 2 3 3 3 2 2 4 3 3 3 3 3 3 3 2 2 5 6 5 7 9 8 8 6 6 13 20 22 22 21 20 20
49 28 18 48 69 67 71 67 52 34 13 10 12 6 6 6 5 19 35 31 17 11 11 13 14 12 11 11 12 13 10 8 13 10 5 7 4 4 12 12 7 10 12 8 5 3 3 3 3 1 2 1 1 2 5 6 3 2 3 4 2 1 2 2 1 3 4 3 3 2 2 5 6 5 7 11 10 7 8 6 8 15 21 23 23 22 21 21
41 16 14 50 66 67 69 49 25 14 7 11 10 3 4 5 6 19 34 34 17 5 10 16 15 14 13 11 11 11 8 6 11 10 3 7 7 3 9 14 12 11 7 5 5 4 2 3 5 2 1 3 4 4 4 5 4 4 5 7 6 4 3 2 3 1 2 2 4 4 3 7 6 4 7 10 8 6 7 7 11 17 19 20 22 23 22 20
28 9 21 52 63 68 58 22 7 10 7 9 7 2 5 6 9 17 23 27 15 4 10 14 11 12 12 12 12 11 9 7 10 10 4 7 9 4 9 18 20 18 10 4 4 4 4 4 4 2 3 5 6 5 3 4 1 2 5 5 7 7 5 6 6 4 2 2 2 4 3 7 6 5 6 8 7 7 6 8 13 17 15 15 17 20 21 20
18 17 36 57 66 67 42 8 7 11 4 7 5 1 5 7 11 16 16 17 11 5 9 9 9 13 10 9 12 12 10 7 8 10 4 4 6 5 13 26 27 19 10 3 4 4 4 4 4 1 2 3 5 5 1 2 1 3 4 1 4 5 4 5 5 4 4 4 3 2 4 6 6 4 6 9 9 8 8 8 12 13 10 11 14 16 18 19
26 32 43 54 65 62 31 7 12 11 5 10 7 4 4 5 11 17 15 13 9 8 10 9 11 14 10 11 14 16 15 9 7 8 4 4 6 5 17 31 28 17 11 10 11 10 5 2 4 4 2 4 3 5 3 2 2 2 3 1 2 2 4 3 2 3 2 4 6 5 5 6 6 4 4 8 8 7 9 8 9 9 8 9 11 12 15 18
27 27 32 44 57 49 18 3 12 13 11 16 13 8 5 4 11 19 18 11 6 8 10 8 12 12 10 13 14 15 17 8 5 8 3 3 5 3 15 32 29 20 17 17 18 15 7 3 5 6 5 6 7 6 5 4 2 2 2 3 4 5 6 4 2 2 3 4 5 5 6 6 5 5 5 6 5 5 9 9 10 10 9 8 9 10 14 17
18 10 14 22 33 31 11 3 9 11 10 15 13 7 6 6 7 16 19 10 4 9 8 6 11 11 9 14 12 11 14 4 3 8 6 6 5 1 11 28 28 21 16 18 25 17 4 2 6 8 10 11 8 6 6 9 8 8 8 8 7 7 7 5 3 4 5 3 3 7 9 8 7 6 6 6 5 5 7 9 11 12 10 9 9 10 13 16
13 9 11 10 12 15 5 4 7 9 10 14 9 5 10 11 7 10 11 6 7 14 8 5 13 12 11 17 13 11 14 4 4 10 9 7 3 2 6 16 18 16 14 19 26 16 3 4 9 9 8 6 5 5 7 12 14 15 13 10 9 8 8 7 7 8 5 4 7 12 11 10 9 8 7 8 7 5 6 11 12 12 11 10 9 11 14 16
9 12 17 15 10 10 8 8 13 13 14 14 6 3 10 13 13 12 6 2 9 15 9 6 15 18 19 21 14 11 13 6 4 9 7 5 4 3 4 3 4 10 12 14 18 10 3 7 9 7 5 3 4 7 9 11 11 10 12 12 10 9 10 11 14 12 8 7 15 14 9 12 11 8 9 10 10 10 10 10 10 8 9 11 11 14 16 18
9 12 12 10 6 7 11 18 22 20 19 15 6 5 11 15 16 10 3 5 9 9 9 11 16 19 22 21 14 13 14 10 8 8 6 8 9 6 5 2 1 5 7 7 8 4 3 5 5 6 5 2 5 8 10 11 9 7 10 12 11 12 15 17 18 16 12 12 16 7 6 14 11 7 8 11 13 15 13 8 7 8 10 13 15 17 18 19
12 13 11 7 3 4 9 13 17 17 14 13 7 6 10 16 17 9 3 9 13 8 9 16 19 19 20 20 17 15 20 20 16 13 10 9 7 6 6 5 3 4 5 5 4 1 2 4 2 6 5 2 5 6 5 6 7 8 9 10 12 15 17 17 15 10 6 11 14 7 10 16 6 7 10 12 11 10 8 8 11 14 16 17 18 19 19 20
15 16 19 13 4 6 12 10 12 12 10 10 8 6 9 14 16 11 1 3 11 12 11 16 19 15 15 19 18 17 21 21 18 22 23 20 17 13 8 7 9 8 4 5 5 2 2 2 2 5 5 5 5 6 4 3 4 5 8 13 16 16 13 12 10 8 9 13 13 10 13 12 2 8 11 12 9 9 10 13 17 18 19 19 19 20 20 20
19 19 23 16 5 5 13 10 10 12 11 10 6 4 7 10 12 12 5 2 2 9 16 20 18 12 12 16 18 20 24 21 20 26 28 26 24 18 13 17 22 16 9 6 4 3 5 5 3 5 6 4 2 7 7 5 4 5 11 15 18 15 12 9 8 11 15 14 10 11 13 7 4 6 6 5 6 10 15 20 22 23 22 20 19 19 20 20
Wind_Direction
224 218 215 212 209 206 204 204 200 197 196 195 197 194 191 191 189 188 187 185 185 187 188 192 196 198 200 202 201 198 194 195 196 200 203 203 197 196 194 191 192 181 198 214 217 224 210 207 212 221 225 216 335 323 330 291 245 224 115 117 231 201 213 196 182 194 166 168 185 186 163 136 142 145 141 139 141 136 140 145 145 166 155 162 191 184 168 164
230 224 216 212 207 204 204 205 200 196 195 195 196 193 191 190 189 188 187 187 186 187 188 191 196 199 202 202 199 195 195 195 195 200 204 204 201 201 199 199 202 194 207 212 202 206 197 193 203 218 228 215 340 325 321 283 215 188 134 128 222 209 212 221 205 192 164 167 175 178 164 147 151 149 146 141 136 136 128 123 135 149 143 156 176 173 168 166
234 231 220 213 210 205 200 201 199 196 195 194 196 193 192 191 189 189 189 189 188 189 191 191 195 199 202 200 198 198 199 200 204 207 205 206 206 207 208 210 212 208 209 207 198 201 183 166 184 201 219 202 330 316 307 275 220 212 181 193 239 228 242 276 224 197 181 167 163 169 167 158 157 154 156 154 145 148 150 154 150 146 146 152 163 170 171 169
233 232 227 214 209 207 199 197 197 196 195 194 196 194 193 192 189 189 190 190 191 191 192 192 194 198 203 202 201 203 204 210 221 215 208 209 210 210 211 213 214 211 208 203 198 196 178 155 153 157 126 29 318 309 289 250 233 207 172 201 241 239 273 278 226 208 193 166 161 164 161 165 166 163 164 151 135 196 194 184 187 175 163 158 162 171 174 173
230 228 228 213 207 209 202 197 196 194 194 193 195 195 193 193 190 189 190 191 192 191 192 192 192 194 197 199 202 207 204 207 233 218 211 212 212 213 211 211 213 211 209 202 197 185 175 157 122 113 79 30 320 310 274 245 226 228 220 228 249 238 245 273 233 204 186 163 156 154 155 172 171 171 173 161 152 217 207 201 204 196 181 174 171 174 177 179
222 226 229 223 214 213 203 196 195 193 192 193 194 195 194 193 192 190 190 190 191 192 191 190 189 189 190 192 197 201 198 189 255 213 211 213 212 213 211 210 211 211 212 206 201 186 172 140 84 79 62 32 310 288 274 269 229 229 261 238 248 233 225 265 225 179 171 162 157 160 165 166 163 177 183 179 190 207 212 212 205 202 195 187 180 177 181 184
220 228 231 234 225 218 207 196 196 193 191 193 194 196 195 194 193 191 191 190 191 192 191 189 188 189 188 187 189 191 197 205 355 199 205 211 211 211 212 211 210 211 212 209 203 187 178 145 72 64 64 34 297 286 287 288 242 217 263 253 254 242 230 229 211 178 174 171 167 164 161 162 165 177 185 191 204 213 220 213 203 199 191 186 183 183 188 191
220 226 228 234 230 223 215 199 195 194 191 193 194 195 196 195 194 193 192 191 192 192 191 190 188 190 190 188 184 181 196 202 138 173 196 201 206 209 210 211 211 213 213 212 209 195 184 178 86 52 68 23 306 304 304 306 259 210 238 258 255 239 221 211 219 196 186 179 166 158 158 170 174 171 185 195 197 197 200 203 201 193 188 188 188 189 192 195
210 218 222 228 230 229 220 199 190 193 191 191 194 195 196 195 195 194 194 193 192 193 193 192 192 192 191 192 186 182 198 194 166 147 189 196 201 205 209 209 209 214 214 211 210 198 183 183 170 71 65 317 309 304 311 320 268 226 232 241 244 236 204 193 212 190 186 180 163 155 152 172 173 166 188 193 183 176 177 189 195 191 190 191 192 195 194 197
203 209 216 220 226 232 221 198 188 190 191 190 192 194 195 195 195 194 194 194 194 194 194 193 195 194 193 193 186 188 203 194 190 187 184 198 202 202 205 207 208 212 213 207 203 197 181 183 185 129 68 300 309 302 309 304 286 303 262 234 229 224 197 189 199 180 177 176 170 160 130 169 171 168 197 192 185 181 176 179 189 192 194 194 195 197 197 199
203 206 212 213 221 230 226 208 193 189 190 190 190 192 194 194 194 194 193 195 195 195 196 194 195 195 196 194 187 190 202 197 200 205 176 192 201 204 203 204 207 209 211 204 199 200 186 185 191 174 162 325 327 309 308 293 308 317 276 214 216 203 195 211 202 189 173 176 186 160 112 144 151 191 214 193 188 191 187 182 187 193 197 197 197 197 199 202
205 204 209 209 216 225 230 221 202 193 191 189 190 192 193 194 193 193 193 194 196 197 196 195 196 198 196 193 193 196 197 197 201 202 186 177 193 203 203 204 208 207 211 203 196 200 190 186 190 180 179 334 330 313 310 308 320 314 249 186 314 4 264 233 203 199 192 189 185 147 99 311 242 224 214 190 189 190 190 188 189 194 197 199 199 200 201 203
209 205 207 208 212 219 224 216 199 193 191 187 189 191 191 191 190 192 193 192 195 196 196 196 197 199 195 190 195 200 197 194 199 198 185 177 188 194 198 203 208 206 212 206 196 194 185 180 182 179 184 300 307 287 297 305 313 305 244 173 126 27 295 228 191 194 206 186 175 152 180 262 245 231 213 185 190 186 186 192 191 194 199 200 201 203 204 205
211 207 207 207 210 212 213 212 199 190 189 187 189 190 189 188 187 189 191 191 192 192 193 194 195 196 193 190 196 200 195 185 193 197 193 188 187 189 191 195 200 199 204 202 190 185 181 171 168 176 186 239 290 293 296 303 302 287 235 178 149 165 260 244 185 171 175 191 181 155 225 242 246 234 219 192 192 189 188 193 195 197 199 202 204 206 208 210
212 210 207 207 209 207 206 212 207 193 188 188 188 189 188 186 186 187 188 189 189 190 190 189 192 189 183 193 204 200 193 187 186 192 200 201 192 187 184 186 187 183 189 191 180 178 177 164 160 172 190 224 280 298 294 310 309 355 175 239 210 171 256 291 199 178 167 191 188 147 208 251 266 239 219 198 193 192 193 194 197 200 201 203 206 209 212 214
212 212 209 207 206 206 206 211 213 200 189 187 186 186 187 185 185 187 187 185 184 187 187 183 187 184 174 189 204 200 197 196 186 184 197 203 206 191 177 176 175 168 175 179 176 175 170 155 155 169 191 222 272 288 291 312 308 348 133 207 222 176 231 306 230 205 185 161 189 174 193 241 279 261 210 196 194 193 195 197 199 203 205 206 209 213 216 218
210 212 211 208 206 205 203 206 211 205 192 184 183 183 183 182 182 184 184 185 182 181 184 184 182 179 182 196 191 197 199 197 190 188 192 192 207 190 171 167 162 159 164 167 172 173 164 155 152 167 186 232 266 231 264 276 266 315 18 185 220 189 185 217 271 234 197 177 204 193 208 236 269 298 201 193 194 194 197 201 203 205 209 211 214 218 221 222
208 211 211 208 208 201 198 202 204 204 191 181 180 178 179 181 179 178 177 177 171 169 178 178 172 173 212 205 192 197 199 195 190 194 191 180 186 179 167 160 156 156 158 160 167 165 159 155 138 138 185 220 234 206 212 229 218 230 204 185 228 219 203 205 241 227 184 199 220 185 231 256 265 296 225 195 194 198 205 207 209 210 212 215 218 221 225 227
208 210 211 208 208 199 195 198 199 201 189 179 176 171 171 171 167 168 170 169 160 158 175 171 170 171 239 196 193 197 197 193 190 196 194 177 170 173 165 156 159 161 158 157 168 162 154 143 137 181 201 203 216 199 200 215 192 188 191 170 172 195 239 223 235 253 176 184 225 194 214 244 250 271 245 208 202 207 214 216 216 216 216 218 219 223 227 229
209 209 209 207 207 198 194 195 198 202 188 173 166 162 159 155 147 152 163 170 169 171 193 175 175 168 54 173 185 187 184 187 191 193 191 180 169 170 169 163 162 166 164 155 166 163 157 165 187 196 198 202 216 194 199 217 200 187 171 172 191 194 233 248 257 295 194 178 227 211 220 250 254 265 252 221 218 224 225 226 224 221 220 221 222 224 227 231
211 208 206 206 203 197 194 193 195 200 192 176 167 162 159 155 153 164 161 167 177 179 197 177 174 160 99 166 180 181 168 171 191 192 187 181 170 166 170 168 160 169 177 153 152 160 164 193 206 192 195 207 223 206 204 223 220 221 225 240 251 211 232 264 254 302 334 185 239 229 235 263 256 254 258 228 218 231 228 225 226 227 226 227 227 228 229 233
211 206 204 205 202 196 193 189 188 193 189 181 172 166 166 166 171 169 156 140 159 163 175 175 171 147 138 164 177 182 167 155 181 188 182 177 172 169 168 166 159 171 178 154 152 166 182 210 199 184 201 216 233 229 216 228 226 224 213 187 258 235 243 283 276 312 3 188 255 247 215 254 255 251 260 242 228 233 232 227 228 229 229 229 229 230 231 233
211 204 201 204 202 196 191 186 184 185 178 174 173 169 172 174 171 162 146 102 117 118 143 170 171 129 137 157 169 176 170 160 171 179 178 174 174 175 166 164 170 170 177 173 169 176 195 205 182 184 203 214 234 235 226 244 237 218 180 156 239 239 196 246 258 296 30 125 214 144 200 266 273 278 272 249 240 241 241 237 237 236 234 234 233 234 235 233
208 202 200 203 202 194 188 182 179 182 176 171 172 172 175 178 168 159 140 85 91 65 144 171 174 153 146 154 165 173 176 176 175 174 176 173 171 173 168 169 172 170 186 190 176 178 205 177 171 184 201 201 222 230 217 232 244 236 193 172 210 214 195 208 195 132 13 358 97 102 356 303 272 264 264 251 242 242 243 240 241 241 240 240 238 237 236 236
204 199 198 199 198 192 185 177 174 180 177 172 174 177 177 174 167 161 143 71 73 70 152 172 175 173 163 157 164 167 168 175 179 177 177 176 171 165 170 175 177 181 189 189 173 178 217 177 171 186 201 189 209 229 211 196 224 254 218 196 207 203 192 170 130 97 48 318 289 90 293 291 293 264 248 256 261 247 242 236 237 242 242 240 238 237 236 236
201 196 195 196 194 188 181 174 174 177 176 175 182 184 175 165 164 164 147 55 128 146 165 172 171 179 170 163 162 152 126 178 188 183 178 181 177 165 164 176 181 188 180 181 176 179 216 178 172 183 187 186 207 227 212 178 187 251 229 197 195 180 158 147 143 121 121 230 287 65 181 256 316 294 251 260 281 257 249 244 242 243 243 239 237 237 236 236
197 194 193 194 190 183 177 171 171 174 176 181 184 180 169 159 164 168 148 45 199 157 145 168 173 176 171 165 159 148 112 183 188 198 184 182 181 173 174 177 172 181 171 164 191 202 181 173 176 179 180 189 199 219 218 170 165 239 228 161 148 150 159 164 158 153 181 205 328 22 135 228 288 270 264 276 275 273 269 258 250 244 242 240 238 237 237 237
194 191 190 191 188 182 175 169 170 175 181 184 180 171 161 157 165 169 150 142 171 138 143 165 162 163 159 159 163 155 123 159 168 209 191 183 185 183 190 193 172 168 170 167 191 234 164 178 187 176 178 193 191 218 209 168 175 234 201 144 142 150 158 158 145 140 82 126 287 308 133 193 268 273 298 330 261 276 267 248 246 243 241 241 240 239 239 239
190 188 188 189 187 182 177 173 174 176 179 180 176 166 158 159 165 165 163 186 142 123 155 152 146 156 152 155 172 178 136 154 160 189 187 188 191 191 194 198 174 147 167 173 176 213 194 189 188 171 177 193 191 218 190 174 198 185 137 107 86 77 89 102 117 113 63 101 235 252 193 192 268 282 305 326 255 256 257 251 247 244 242 241 241 241 241 241
187 185 187 186 183 178 175 173 173 173 171 169 166 159 157 159 160 156 195 189 124 128 155 147 155 164 154 154 176 183 148 159 152 161 179 191 192 194 169 176 164 129 93 40 139 223 318 178 183 168 183 186 176 184 174 189 178 131 110 84 68 42 42 51 60 95 93 268 248 245 225 181 263 281 250 226 229 220 234 267 267 257 250 243 242 242 241 241
184 184 185 183 179 175 171 166 168 171 165 158 154 153 156 156 146 166 177 152 115 134 145 145 154 155 157 161 169 172 159 149 151 157 174 191 188 193 162 163 158 124 119 101 144 307 8 101 185 179 210 166 139 107 62 192 157 122 106 108 92 8 12 26 357 49 148 249 259 250 226 170 217 264 245 239 257 233 220 247 261 270 273 258 245 242 238 234
182 183 183 182 179 175 172 168 170 170 162 154 151 152 151 140 190 184 154 140 148 167 159 156 160 157 163 168 161 160 137 125 167 166 172 179 181 194 182 179 173 151 172 180 166 354 29 221 274 359 252 175 136 119 65 37 116 110 119 128 119 4 26 22 281 294 215 242 264 248 208 196 227 251 259 263 267 254 228 233 250 272 288 282 253 238 231 224
180 180 180 181 177 174 175 171 168 166 159 154 152 148 144 161 182 167 146 169 170 166 163 158 161 161 158 160 159 146 109 128 181 172 170 173 175 202 215 211 180 157 170 171 137 122 218 296 299 95 262 219 174 168 164 157 147 141 146 145 141 125 122 213 245 285 253 251 273 256 236 255 266 262 251 249 257 269 264 254 262 276 290 293 260 232 220 216
178 177 178 180 177 176 175 168 164 164 159 154 149 143 158 167 171 155 159 187 157 149 155 148 148 150 151 157 163 155 126 155 179 163 161 167 172 200 221 220 196 142 119 152 156 169 184 238 229 176 172 185 190 199 167 148 151 183 163 140 150 155 159 201 216 212 228 257 283 277 238 192 201 245 238 242 265 288 289 263 259 263 270 271 242 222 214 215
175 175 176 177 175 175 173 166 164 164 158 151 144 153 172 160 160 169 167 162 140 138 141 139 137 142 157 160 155 163 147 146 169 161 167 179 185 193 196 204 200 151 139 167 184 175 176 213 274 292 90 132 156 265 145 132 155 211 141 122 174 182 150 151 187 184 175 165 261 233 234 209 209 269 269 264 274 280 282 268 255 251 252 237 221 219 217 219
171 172 173 173 170 169 167 164 164 165 159 149 143 180 183 175 173 178 171 154 153 146 137 141 142 146 161 152 157 178 160 131 159 162 185 197 207 204 197 199 194 178 167 162 154 163 164 211 321 350 35 85 124 237 334 151 175 159 129 178 215 166 118 122 199 137 101 181 250 194 249 285 316 290 292 319 293 275 278 275 255 242 235 221 216 218 220 225
166 168 168 167 164 164 163 163 164 164 158 150 163 180 182 199 181 173 165 150 150 146 140 148 157 158 162 154 171 180 161 143 171 180 184 187 214 206 201 212 194 188 184 158 155 207 153 143 322 42 154 313 33 73 5 44 137 127 165 198 189 110 92 116 170 10 54 229 271 245 220 273 321 263 310 337 293 274 273 255 249 241 225 219 219 220 224 230
161 159 159 162 162 162 162 163 163 159 154 151 183 180 175 193 176 150 149 141 142 144 142 152 161 165 167 162 174 177 163 160 177 188 184 185 227 199 185 202 195 185 188 159 146 206 141 129 309 349 172 286 7 74 144 356 82 136 172 165 134 153 209 151 159 176 168 224 277 307 250 247 203 214 288 293 245 251 257 241 237 237 225 221 222 223 227 232
154 149 151 159 161 162 162 161 159 155 150 164 185 184 178 182 175 154 151 144 144 149 150 158 159 163 172 165 165 172 172 171 172 181 190 190 233 206 181 188 184 180 186 164 148 192 135 131 237 306 292 288 13 98 181 203 4 43 87 131 122 150 179 180 163 161 175 205 243 301 308 257 228 216 221 234 234 236 238 232 228 231 227 224 225 226 229 234
151 143 144 158 160 161 161 158 155 153 156 181 181 186 178 175 174 162 157 152 150 157 158 161 159 156 166 165 161 168 175 172 171 181 206 190 208 231 191 184 166 173 178 154 142 171 125 119 175 281 336 148 178 213 186 179 173 117 128 175 199 75 133 164 165 130 133 162 194 234 282 263 249 212 197 224 240 232 218 220 236 240 235 231 231 230 232 235
149 136 148 159 158 158 157 154 153 157 175 182 178 183 169 157 146 161 162 157 152 153 155 159 161 157 158 160 162 169 163 153 173 182 204 191 187 233 204 180 154 154 156 125 144 165 129 115 139 155 190 182 225 248 198 187 188 175 182 184 182 167 123 147 231 213 135 171 178 171 240 265 254 207 201 224 241 244 228 221 240 250 248 244 240 234 233 235
149 134 153 157 157 156 154 149 159 171 185 180 171 155 147 137 145 163 166 159 151 126 146 156 161 155 157 162 160 164 157 150 179 183 183 195 188 195 190 169 155 157 156 140 169 157 112 103 112 153 207 208 246 262 199 185 216 239 227 197 181 181 152 162 209 221 195 208 148 141 227 269 260 214 208 229 247 260 254 234 243 254 256 253 249 240 235 232
137 130 149 158 160 157 152 142 172 173 194 168 161 199 152 146 159 165 167 164 158 133 145 155 157 155 163 163 151 157 161 157 185 184 160 177 192 199 178 165 158 159 154 140 176 157 116 101 102 90 307 299 300 316 327 138 112 253 251 192 178 201 163 159 185 175 179 194 157 167 243 267 272 247 227 246 260 266 261 247 248 254 254 255 255 246 236 229
124 130 146 158 163 160 155 158 173 172 172 163 177 226 174 159 169 167 168 174 168 149 152 159 163 162 165 160 158 166 169 168 192 190 155 155 190 201 177 170 164 165 176 183 180 172 164 137 117 112 36 357 334 318 288 211 163 219 243 250 219 178 100 110 141 115 202 213 170 178 234 250 272 297 270 262 272 273 261 248 246 251 248 252 254 243 233 227
124 132 145 158 165 167 164 156 170 170 166 168 181 199 173 162 182 177 172 171 164 147 147 154 159 152 146 154 160 169 171 164 170 178 151 144 176 197 179 177 175 178 190 184 166 158 160 163 146 143 156 186 203 219 215 187 162 211 218 203 201 172 150 161 138 128 237 233 163 180 232 247 271 298 288 275 276 269 259 243 237 247 250 249 247 235 225 224
131 133 143 152 165 173 174 85 150 161 162 168 177 189 166 152 184 183 172 169 163 140 125 126 139 125 133 152 149 165 176 150 96 164 164 156 168 289 185 184 185 185 183 166 155 150 127 169 183 187 195 196 195 196 161 136 154 204 201 179 185 189 172 150 129 179 205 195 184 221 231 235 247 252 261 271 254 241 255 245 237 247 253 247 239 231 225 224
140 141 149 138 154 177 177 64 140 158 168 174 175 178 170 157 158 179 179 187 167 144 116 112 144 138 152 157 148 167 176 133 88 159 161 155 155 22 170 183 188 181 165 157 158 150 96 195 199 204 212 201 164 164 160 155 177 199 190 178 186 181 160 161 201 210 159 128 239 237 226 229 232 223 235 258 256 244 255 255 252 254 255 249 237 227 223 223
140 147 161 154 148 178 186 171 172 169 172 180 174 150 168 162 161 174 190 201 161 149 125 135 162 161 162 161 154 162 166 145 133 158 150 143 136 84 114 154 188 174 159 160 165 153 134 197 199 187 196 207 154 156 164 171 186 188 178 183 183 171 172 190 215 214 162 185 238 235 224 238 235 212 220 232 235 242 252 263 273 271 258 252 241 228 222 221
128 133 154 155 149 180 172 168 171 170 173 179 175 164 172 169 169 175 173 145 160 163 149 155 170 168 164 163 154 153 166 167 167 174 165 155 153 138 129 117 199 181 157 155 170 166 166 193 185 151 157 220 191 174 172 172 171 171 184 189 177 177 194 203 215 218 196 219 249 263 281 267 246 199 218 232 236 247 259 276 287 275 261 253 242 232 226 223
138 144 151 139 109 134 129 143 161 167 173 175 176 187 179 173 171 170 180 165 164 177 166 160 169 168 164 166 161 167 182 177 169 172 158 142 154 165 161 166 174 162 144 147 163 195 183 193 162 126 133 229 217 189 181 172 166 174 192 199 192 195 206 212 219 220 208 246 264 284 287 276 250 166 210 233 230 233 248 258 254 253 254 249 239 234 231 229
133 147 149 136 95 135 136 141 157 164 179 182 185 194 182 181 174 158 144 184 160 168 170 157 158 158 161 170 173 179 184 176 167 167 162 161 172 176 174 168 152 141 142 160 156 124 141 168 74 106 148 235 223 168 150 94 109 174 206 209 204 203 208 214 212 192 196 228 243 248 256 262 195 153 203 222 206 199 223 241 247 251 252 249 243 238 239 241
121 130 138 127 72 134 145 148 158 169 186 182 177 184 173 182 179 155 136 13 96 152 157 149 145 147 163 180 187 185 182 175 167 165 166 167 168 163 154 156 157 154 157 160 150 138 147 147 129 145 173 237 221 145 136 95 98 231 233 208 202 205 202 201 210 208 209 212 215 230 239 231 168 172 191 184 173 195 221 233 244 252 252 252 251 247 250 253